SWA3088 KMCO-KBNA

Flight info

Callsign SWA3088
Flight time 1h 39m
Altitude 38000
Route RDSOX1 JFRYS BRUTS Q118 THRSR SWFFT3
Aircraft B737/M-SDE2E3FGHIRWXY/LB1

Departure

Time 2026-05-04 23:33
Airport Orlando International Airport (KMCO)

Arrival

Time 2026-05-05 01:13
Airport Nashville International Airport (KBNA)
Time Latitude Longitude Altitude Speed Heading
2026-05-04 23:03 28.43510 -81.30371 94 ft 0 kts 74°
2026-05-04 23:19 28.43509 -81.30379 95 ft 4 kts 74°
2026-05-04 23:19 28.43502 -81.30404 94 ft 2 kts 74°
2026-05-04 23:19 28.43492 -81.30424 94 ft 4 kts
2026-05-04 23:19 28.43471 -81.30414 94 ft 4 kts 324°
2026-05-04 23:20 28.43465 -81.30409 94 ft 0 kts 324°
2026-05-04 23:24 28.43469 -81.30413 94 ft 2 kts 324°
2026-05-04 23:24 28.43499 -81.30445 95 ft 9 kts 319°
2026-05-04 23:25 28.43579 -81.30459 94 ft 15 kts 14°
2026-05-04 23:25 28.43666 -81.30374 94 ft 19 kts 60°
2026-05-04 23:25 28.43764 -81.30261 93 ft 23 kts
2026-05-04 23:25 28.43909 -81.30283 102 ft 21 kts 298°
2026-05-04 23:26 28.43915 -81.30455 105 ft 22 kts 274°
2026-05-04 23:26 28.43927 -81.30624 105 ft 21 kts 274°
2026-05-04 23:26 28.43939 -81.30799 109 ft 25 kts 274°
2026-05-04 23:26 28.43942 -81.31020 106 ft 29 kts 270°
2026-05-04 23:27 28.43934 -81.31234 107 ft 26 kts 266°
2026-05-04 23:27 28.43925 -81.31434 103 ft 25 kts 268°
2026-05-04 23:27 28.43923 -81.31603 106 ft 18 kts 270°
2026-05-04 23:27 28.43922 -81.31743 103 ft 19 kts 269°
2026-05-04 23:28 28.43863 -81.31848 98 ft 19 kts 180°
2026-05-04 23:28 28.43729 -81.31847 97 ft 20 kts 180°
2026-05-04 23:28 28.43577 -81.31844 99 ft 24 kts 179°
2026-05-04 23:28 28.43392 -81.31840 98 ft 26 kts 180°
2026-05-04 23:29 28.43214 -81.31842 97 ft 25 kts 179°
2026-05-04 23:29 28.43049 -81.31839 97 ft 23 kts 179°
2026-05-04 23:29 28.42891 -81.31837 97 ft 22 kts 179°
2026-05-04 23:29 28.42734 -81.31834 99 ft 25 kts 179°
2026-05-04 23:30 28.42551 -81.31834 100 ft 26 kts 180°
2026-05-04 23:30 28.42374 -81.31832 99 ft 25 kts 179°
2026-05-04 23:30 28.42210 -81.31851 97 ft 23 kts 195°
2026-05-04 23:30 28.42055 -81.31878 97 ft 23 kts 180°
2026-05-04 23:31 28.41876 -81.31875 98 ft 27 kts 181°
2026-05-04 23:31 28.41695 -81.31879 98 ft 25 kts 181°
2026-05-04 23:31 28.41551 -81.31901 97 ft 16 kts 233°
2026-05-04 23:31 28.41543 -81.32022 96 ft 15 kts 269°
2026-05-04 23:32 28.41543 -81.32145 96 ft 16 kts 270°
2026-05-04 23:32 28.41592 -81.32199 96 ft 11 kts 17°
2026-05-04 23:32 28.41629 -81.32200 98 ft 0 kts 356°
2026-05-04 23:32 28.41660 -81.32200 96 ft 13 kts
2026-05-04 23:33 28.42008 -81.32201 99 ft 89 kts 359°
2026-05-04 23:33 28.42854 -81.32209 100 ft 152 kts
2026-05-04 23:33 28.44056 -81.32206 388 ft 179 kts
2026-05-04 23:33 28.45237 -81.32231 1519 ft 162 kts 358°
2026-05-04 23:34 28.46379 -81.32384 2294 ft 167 kts 358°
2026-05-04 23:34 28.47551 -81.32545 3028 ft 172 kts 359°
2026-05-04 23:34 28.48809 -81.32547 3448 ft 196 kts
2026-05-04 23:34 28.50267 -81.32473 3718 ft 223 kts
2026-05-04 23:35 28.51895 -81.32386 4118 ft 243 kts 359°
2026-05-04 23:35 28.53600 -81.32598 4934 ft 248 kts 352°
2026-05-04 23:35 28.55288 -81.33006 5892 ft 250 kts 338°
2026-05-04 23:35 28.56903 -81.33777 6668 ft 254 kts 333°
2026-05-04 23:36 28.58444 -81.34736 6945 ft 251 kts 317°
2026-05-04 23:36 28.59454 -81.36314 7005 ft 252 kts 290°
2026-05-04 23:36 28.59798 -81.38329 7082 ft 268 kts 271°
2026-05-04 23:36 28.59779 -81.40477 7988 ft 271 kts 268°
2026-05-04 23:37 28.59724 -81.42618 9203 ft 271 kts 268°
2026-05-04 23:37 28.59682 -81.44764 10295 ft 273 kts 269°
2026-05-04 23:37 28.59650 -81.47003 10798 ft 297 kts 269°
2026-05-04 23:37 28.59542 -81.49471 10999 ft 327 kts 260°
2026-05-04 23:38 28.58765 -81.51976 11515 ft 343 kts 246°
2026-05-04 23:38 28.57771 -81.54441 12310 ft 350 kts 245°
2026-05-04 23:38 28.56737 -81.56957 13189 ft 354 kts 245°
2026-05-04 23:38 28.55690 -81.59510 14037 ft 358 kts 245°
2026-05-04 23:39 28.54638 -81.62091 14837 ft 361 kts 246°
2026-05-04 23:39 28.53586 -81.64690 15700 ft 362 kts 246°
2026-05-04 23:39 28.52534 -81.67296 16565 ft 363 kts 246°
2026-05-04 23:39 28.51481 -81.69913 17398 ft 365 kts 246°
2026-05-04 23:40 28.50423 -81.72543 18178 ft 367 kts 246°
2026-05-04 23:40 28.49359 -81.75189 18851 ft 370 kts 247°
2026-05-04 23:40 28.48285 -81.77858 19507 ft 372 kts 247°
2026-05-04 23:40 28.47203 -81.80544 20161 ft 375 kts 247°
2026-05-04 23:41 28.46100 -81.83284 20792 ft 378 kts 247°
2026-05-04 23:41 28.45001 -81.86009 21398 ft 381 kts 247°
2026-05-04 23:41 28.43890 -81.88760 22001 ft 384 kts 247°
2026-05-04 23:41 28.42900 -81.91576 22583 ft 385 kts 256°
2026-05-04 23:42 28.42533 -81.94585 23160 ft 386 kts 269°
2026-05-04 23:42 28.42554 -81.97648 23724 ft 389 kts 271°
2026-05-04 23:42 28.42631 -82.00704 24186 ft 391 kts 271°
2026-05-04 23:42 28.42718 -82.03799 24681 ft 393 kts 271°
2026-05-04 23:43 28.42796 -82.06904 25186 ft 394 kts 271°
2026-05-04 23:43 28.42862 -82.10018 25673 ft 395 kts 271°
2026-05-04 23:43 28.42918 -82.13152 26147 ft 397 kts 271°
2026-05-04 23:43 28.42969 -82.16298 26602 ft 399 kts 271°
2026-05-04 23:44 28.43016 -82.19457 27034 ft 401 kts 271°
2026-05-04 23:44 28.43062 -82.22637 27460 ft 403 kts 271°
2026-05-04 23:44 28.43107 -82.25826 27868 ft 405 kts 271°
2026-05-04 23:44 28.43152 -82.29039 28293 ft 407 kts 271°
2026-05-04 23:45 28.43197 -82.32263 28701 ft 409 kts 271°
2026-05-04 23:45 28.43242 -82.35503 29073 ft 412 kts 271°
2026-05-04 23:45 28.43287 -82.38761 29421 ft 413 kts 272°
2026-05-04 23:45 28.43708 -82.41994 29727 ft 417 kts 286°
2026-05-04 23:46 28.44888 -82.45010 30208 ft 420 kts 298°
2026-05-04 23:46 28.46634 -82.47660 30759 ft 420 kts 308°
2026-05-04 23:46 28.48809 -82.49895 31340 ft 424 kts 320°
2026-05-04 23:46 28.51428 -82.51505 31850 ft 430 kts 329°
2026-05-04 23:47 28.54187 -82.52817 32367 ft 430 kts 331°
2026-05-04 23:47 28.56958 -82.54060 32904 ft 427 kts 332°
2026-05-04 23:47 28.59713 -82.55279 33459 ft 423 kts 332°
2026-05-04 23:47 28.62443 -82.56497 33963 ft 420 kts 331°
2026-05-04 23:48 28.65150 -82.57724 34350 ft 418 kts 331°
2026-05-04 23:48 28.67849 -82.58963 34671 ft 418 kts 330°
2026-05-04 23:48 28.70546 -82.60213 34916 ft 419 kts 330°
2026-05-04 23:48 28.73252 -82.61473 35181 ft 420 kts 330°
2026-05-04 23:49 28.75957 -82.62733 35495 ft 420 kts 330°
2026-05-04 23:49 28.78655 -82.63992 35805 ft 419 kts 330°
2026-05-04 23:49 28.81350 -82.65251 36070 ft 420 kts 330°
2026-05-04 23:49 28.84056 -82.66516 36303 ft 421 kts 330°
2026-05-04 23:50 28.86770 -82.67785 36558 ft 421 kts 330°
2026-05-04 23:50 28.89479 -82.69053 36862 ft 420 kts 330°
2026-05-04 23:50 28.92183 -82.70318 37137 ft 420 kts 330°
2026-05-04 23:50 28.94893 -82.71588 37378 ft 421 kts 329°
2026-05-04 23:51 28.97602 -82.72858 37635 ft 421 kts 329°
2026-05-04 23:51 29.00309 -82.74126 37903 ft 421 kts 329°
2026-05-04 23:51 29.03022 -82.75399 38032 ft 424 kts 329°
2026-05-04 23:51 29.05765 -82.76688 38034 ft 426 kts 329°
2026-05-04 23:52 29.11252 -82.79263 38029 ft 425 kts 329°
2026-05-04 23:52 29.16664 -82.81799 38040 ft 418 kts 329°
2026-05-04 23:53 29.22043 -82.84332 38041 ft 418 kts 329°
2026-05-04 23:53 29.27415 -82.86866 38039 ft 417 kts 330°
2026-05-04 23:54 29.32782 -82.89398 38041 ft 417 kts 330°
2026-05-04 23:54 29.38156 -82.91935 38044 ft 417 kts 330°
2026-05-04 23:55 29.43520 -82.94472 38048 ft 417 kts 330°
2026-05-04 23:56 29.51570 -82.98284 38042 ft 417 kts 330°
2026-05-04 23:56 29.56926 -83.00822 38036 ft 416 kts 330°
2026-05-04 23:57 29.62269 -83.03358 38041 ft 415 kts 330°
2026-05-04 23:57 29.67567 -83.05877 38038 ft 414 kts 330°
2026-05-04 23:58 29.72890 -83.08409 38044 ft 413 kts 330°
2026-05-04 23:58 29.78199 -83.10939 38036 ft 413 kts 330°
2026-05-04 23:59 29.83498 -83.13466 38034 ft 412 kts 330°
2026-05-04 23:59 29.88792 -83.15994 38051 ft 411 kts 330°
2026-05-05 00:00 29.94069 -83.18516 38045 ft 410 kts 330°
2026-05-05 00:00 29.99341 -83.21038 38040 ft 409 kts 330°
2026-05-05 00:01 30.04592 -83.23554 38055 ft 409 kts 330°
2026-05-05 00:01 30.09838 -83.26071 38050 ft 408 kts 330°
2026-05-05 00:02 30.15081 -83.28590 38054 ft 408 kts 330°
2026-05-05 00:02 30.20308 -83.31103 38052 ft 407 kts 330°
2026-05-05 00:03 30.25530 -83.33617 38051 ft 406 kts 331°
2026-05-05 00:03 30.30739 -83.36130 38049 ft 405 kts 330°
2026-05-05 00:04 30.35939 -83.38646 38049 ft 405 kts 330°
2026-05-05 00:04 30.41130 -83.41160 38043 ft 404 kts 330°
2026-05-05 00:05 30.46313 -83.43671 38044 ft 403 kts 330°
2026-05-05 00:05 30.51489 -83.46184 38045 ft 403 kts 330°
2026-05-05 00:06 30.56657 -83.48695 38051 ft 402 kts 330°
2026-05-05 00:06 30.61816 -83.51204 38053 ft 402 kts 330°
2026-05-05 00:07 30.66964 -83.53705 38046 ft 401 kts 330°
2026-05-05 00:07 30.72065 -83.56195 38049 ft 400 kts 330°
2026-05-05 00:08 30.77193 -83.58700 38051 ft 400 kts 330°
2026-05-05 00:08 30.82315 -83.61203 38047 ft 399 kts 330°
2026-05-05 00:09 30.87432 -83.63707 38049 ft 399 kts 330°
2026-05-05 00:09 30.91677 -83.65786 38050 ft 398 kts 330°
2026-05-05 00:10 30.96781 -83.68287 38049 ft 398 kts 330°
2026-05-05 00:10 31.01877 -83.70788 38050 ft 397 kts 330°
2026-05-05 00:11 31.06968 -83.73290 38050 ft 397 kts 330°
2026-05-05 00:11 31.12053 -83.75791 38058 ft 396 kts 330°
2026-05-05 00:12 31.17131 -83.78292 38044 ft 396 kts 330°
2026-05-05 00:12 31.22198 -83.80792 38055 ft 395 kts 330°
2026-05-05 00:13 31.27265 -83.83294 38059 ft 395 kts 330°
2026-05-05 00:13 31.32327 -83.85796 38050 ft 395 kts 330°
2026-05-05 00:14 31.37389 -83.88301 38051 ft 395 kts 330°
2026-05-05 00:14 31.42447 -83.90808 38058 ft 395 kts 330°
2026-05-05 00:15 31.47499 -83.93315 38057 ft 394 kts 330°
2026-05-05 00:15 31.52592 -83.95700 38052 ft 398 kts 336°
2026-05-05 00:16 31.58078 -83.97050 38059 ft 404 kts 341°
2026-05-05 00:16 31.63606 -83.98238 38060 ft 404 kts 341°
2026-05-05 00:17 31.69122 -83.99442 38055 ft 403 kts 341°
2026-05-05 00:17 31.74593 -84.00652 38048 ft 402 kts 341°
2026-05-05 00:18 31.80121 -84.01882 38057 ft 401 kts 341°
2026-05-05 00:18 31.85567 -84.03098 38049 ft 401 kts 341°
2026-05-05 00:19 31.91051 -84.04323 38041 ft 401 kts 341°
2026-05-05 00:19 31.96570 -84.05558 38041 ft 401 kts 341°
2026-05-05 00:20 32.02016 -84.06778 38034 ft 401 kts 341°
2026-05-05 00:20 32.07496 -84.08007 38036 ft 401 kts 341°
2026-05-05 00:21 32.12978 -84.09238 38028 ft 401 kts 341°
2026-05-05 00:21 32.18460 -84.10469 38034 ft 401 kts 341°
2026-05-05 00:22 32.23943 -84.11704 38031 ft 401 kts 341°
2026-05-05 00:22 32.29427 -84.12940 38035 ft 402 kts 341°
2026-05-05 00:23 32.34924 -84.14181 38034 ft 402 kts 341°
2026-05-05 00:23 32.40417 -84.15421 38033 ft 402 kts 341°
2026-05-05 00:24 32.45917 -84.16665 38035 ft 403 kts 341°
2026-05-05 00:24 32.51427 -84.17913 38027 ft 403 kts 341°
2026-05-05 00:25 32.56934 -84.19162 38033 ft 403 kts 341°
2026-05-05 00:25 32.62441 -84.20412 38035 ft 403 kts 341°
2026-05-05 00:26 32.67923 -84.21658 38038 ft 404 kts 341°
2026-05-05 00:26 32.73438 -84.22914 38054 ft 404 kts 341°
2026-05-05 00:27 32.78962 -84.24172 38058 ft 405 kts 341°
2026-05-05 00:27 32.84496 -84.25435 38069 ft 405 kts 341°
2026-05-05 00:28 32.90041 -84.26701 38069 ft 406 kts 341°
2026-05-05 00:28 32.95592 -84.27971 38072 ft 406 kts 341°
2026-05-05 00:29 33.01148 -84.29243 38065 ft 407 kts 341°
2026-05-05 00:29 33.06704 -84.30518 38060 ft 407 kts 342°
2026-05-05 00:30 33.12261 -84.31793 38046 ft 407 kts 342°
2026-05-05 00:30 33.17815 -84.33070 38060 ft 407 kts 342°
2026-05-05 00:31 33.23370 -84.34350 38061 ft 407 kts 342°
2026-05-05 00:31 33.28935 -84.35633 38067 ft 407 kts 342°
2026-05-05 00:32 33.34503 -84.36918 38070 ft 408 kts 342°
2026-05-05 00:32 33.40090 -84.38210 38068 ft 409 kts 342°
2026-05-05 00:33 33.45679 -84.39504 38067 ft 409 kts 342°
2026-05-05 00:33 33.51272 -84.40801 38039 ft 410 kts 342°
2026-05-05 00:34 33.56876 -84.42101 38041 ft 410 kts 342°
2026-05-05 00:34 33.62479 -84.43408 38035 ft 410 kts 341°
2026-05-05 00:35 33.67801 -84.45590 38037 ft 403 kts 332°
2026-05-05 00:35 33.72992 -84.48137 38034 ft 404 kts 332°
2026-05-05 00:36 33.78225 -84.50648 38040 ft 405 kts 333°
2026-05-05 00:36 33.83439 -84.53099 38036 ft 406 kts 333°
2026-05-05 00:37 33.88707 -84.55566 38014 ft 406 kts 333°
2026-05-05 00:37 33.93978 -84.58039 38015 ft 407 kts 333°
2026-05-05 00:38 33.99206 -84.60615 38048 ft 404 kts 330°
2026-05-05 00:38 34.04216 -84.63654 38040 ft 403 kts 328°
2026-05-05 00:39 34.09186 -84.66774 38041 ft 403 kts 328°
2026-05-05 00:39 34.14179 -84.69864 38024 ft 403 kts 328°
2026-05-05 00:40 34.19188 -84.72936 38021 ft 404 kts 328°
2026-05-05 00:40 34.24199 -84.76002 38026 ft 404 kts 328°
2026-05-05 00:41 34.29213 -84.79072 38014 ft 404 kts 328°
2026-05-05 00:41 34.34220 -84.82145 37998 ft 404 kts 328°
2026-05-05 00:42 34.39226 -84.85221 37997 ft 403 kts 328°
2026-05-05 00:42 34.44191 -84.88276 38002 ft 403 kts 328°
2026-05-05 00:43 34.49186 -84.91354 38003 ft 403 kts 328°
2026-05-05 00:43 34.54180 -84.94435 38000 ft 403 kts 328°
2026-05-05 00:44 34.59204 -84.97538 37998 ft 403 kts 328°
2026-05-05 00:44 34.64162 -85.00604 38006 ft 402 kts 328°
2026-05-05 00:45 34.68985 -85.04003 38009 ft 399 kts 323°
2026-05-05 00:45 34.73633 -85.07684 38004 ft 399 kts 323°
2026-05-05 00:46 34.78298 -85.11367 37999 ft 400 kts 323°
2026-05-05 00:46 34.82981 -85.15019 37884 ft 402 kts 323°
2026-05-05 00:46 34.85364 -85.16871 37266 ft 407 kts 323°
2026-05-05 00:47 34.87745 -85.18718 36576 ft 405 kts 323°
2026-05-05 00:47 34.90120 -85.20562 35868 ft 405 kts 323°
2026-05-05 00:47 34.92507 -85.22416 35069 ft 408 kts 323°
2026-05-05 00:47 34.94912 -85.24287 34211 ft 413 kts 323°
2026-05-05 00:48 34.97353 -85.26187 33412 ft 421 kts 324°
2026-05-05 00:48 34.99855 -85.28138 32456 ft 432 kts 324°
2026-05-05 00:48 35.02393 -85.30117 31636 ft 432 kts 324°
2026-05-05 00:48 35.04915 -85.32086 30955 ft 428 kts 323°
2026-05-05 00:49 35.07407 -85.34031 30303 ft 424 kts 324°
2026-05-05 00:49 35.09890 -85.35964 29550 ft 421 kts 324°
2026-05-05 00:49 35.12341 -85.37877 28849 ft 416 kts 324°
2026-05-05 00:49 35.14767 -85.39775 28217 ft 411 kts 324°
2026-05-05 00:50 35.16999 -85.41877 27684 ft 399 kts 312°
2026-05-05 00:50 35.18909 -85.44284 27278 ft 392 kts 311°
2026-05-05 00:50 35.20773 -85.46702 26856 ft 392 kts 310°
2026-05-05 00:50 35.22651 -85.49150 26437 ft 397 kts 311°
2026-05-05 00:51 35.24551 -85.51615 25998 ft 398 kts 311°
2026-05-05 00:51 35.26452 -85.54066 25569 ft 395 kts 311°
2026-05-05 00:51 35.28338 -85.56489 25151 ft 392 kts 311°
2026-05-05 00:51 35.30219 -85.58897 24727 ft 390 kts 311°
2026-05-05 00:52 35.32089 -85.61289 24311 ft 388 kts 311°
2026-05-05 00:52 35.33953 -85.63671 23893 ft 387 kts 311°
2026-05-05 00:52 35.35810 -85.66047 23451 ft 386 kts 311°
2026-05-05 00:52 35.37639 -85.68390 22981 ft 384 kts 311°
2026-05-05 00:53 35.39482 -85.70751 22535 ft 382 kts 311°
2026-05-05 00:53 35.41314 -85.73100 22091 ft 380 kts 311°
2026-05-05 00:53 35.43132 -85.75433 21694 ft 377 kts 311°
2026-05-05 00:53 35.44937 -85.77753 21281 ft 375 kts 311°
2026-05-05 00:54 35.46730 -85.80059 20880 ft 372 kts 311°
2026-05-05 00:54 35.48508 -85.82347 20486 ft 370 kts 311°
2026-05-05 00:54 35.50279 -85.84628 20088 ft 368 kts 311°
2026-05-05 00:54 35.52043 -85.86900 19694 ft 366 kts 311°
2026-05-05 00:55 35.53795 -85.89159 19297 ft 365 kts 311°
2026-05-05 00:55 35.55537 -85.91407 18918 ft 361 kts 310°
2026-05-05 00:55 35.57227 -85.93642 18588 ft 354 kts 310°
2026-05-05 00:55 35.58871 -85.95849 18262 ft 347 kts 310°
2026-05-05 00:56 35.60490 -85.98028 17910 ft 343 kts 309°
2026-05-05 00:56 35.62094 -86.00185 17562 ft 340 kts 309°
2026-05-05 00:56 35.63684 -86.02317 17307 ft 337 kts 309°
2026-05-05 00:56 35.65279 -86.04458 17001 ft 342 kts 309°
2026-05-05 00:57 35.66897 -86.06629 16686 ft 345 kts 309°
2026-05-05 00:57 35.68515 -86.08799 16367 ft 344 kts 309°
2026-05-05 00:57 35.70129 -86.10962 16056 ft 342 kts 309°
2026-05-05 00:57 35.71704 -86.13150 15738 ft 340 kts 306°
2026-05-05 00:58 35.73141 -86.15451 15410 ft 338 kts 303°
2026-05-05 00:58 35.74522 -86.17792 15098 ft 338 kts 303°
2026-05-05 00:58 35.75891 -86.20135 14788 ft 337 kts 302°
2026-05-05 00:58 35.76799 -86.21682 14579 ft 336 kts 303°
2026-05-05 00:59 35.78172 -86.24010 14269 ft 336 kts 303°
2026-05-05 00:59 35.79549 -86.26328 13966 ft 335 kts 303°
2026-05-05 00:59 35.80927 -86.28639 13638 ft 335 kts 303°
2026-05-05 00:59 35.82303 -86.30944 13303 ft 333 kts 303°
2026-05-05 01:00 35.83673 -86.33236 12973 ft 331 kts 303°
2026-05-05 01:00 35.85029 -86.35507 12663 ft 327 kts 303°
2026-05-05 01:00 35.86373 -86.37755 12362 ft 323 kts 303°
2026-05-05 01:00 35.87693 -86.39967 12070 ft 319 kts 303°
2026-05-05 01:01 35.89007 -86.42169 11785 ft 318 kts 303°
2026-05-05 01:01 35.90311 -86.44361 11484 ft 316 kts 303°
2026-05-05 01:01 35.91613 -86.46541 11204 ft 313 kts 303°
2026-05-05 01:01 35.92883 -86.48671 10927 ft 304 kts 303°
2026-05-05 01:02 35.94116 -86.50738 10654 ft 295 kts 303°
2026-05-05 01:02 35.95313 -86.52750 10383 ft 287 kts 303°
2026-05-05 01:02 35.96476 -86.54708 10107 ft 280 kts 302°
2026-05-05 01:02 35.97611 -86.56623 9855 ft 273 kts 302°
2026-05-05 01:03 35.98835 -86.58383 9559 ft 272 kts 318°
2026-05-05 01:03 36.00540 -86.59389 9313 ft 274 kts 343°
2026-05-05 01:03 36.02443 -86.59473 9044 ft 277 kts
2026-05-05 01:03 36.04285 -86.58821 8818 ft 273 kts 14°
2026-05-05 01:04 36.06076 -86.58081 8556 ft 270 kts 15°
2026-05-05 01:04 36.09572 -86.56646 8081 ft 262 kts 15°
2026-05-05 01:04 36.11288 -86.55999 8014 ft 255 kts 12°
2026-05-05 01:05 36.12997 -86.55452 7903 ft 251 kts 10°
2026-05-05 01:05 36.14703 -86.54927 7543 ft 254 kts 11°
2026-05-05 01:05 36.16427 -86.54397 7234 ft 256 kts 11°
2026-05-05 01:05 36.18152 -86.53849 6940 ft 256 kts 12°
2026-05-05 01:06 36.19867 -86.53292 6687 ft 254 kts 12°
2026-05-05 01:06 36.21583 -86.52731 6382 ft 256 kts 12°
2026-05-05 01:06 36.23305 -86.52166 6111 ft 255 kts 13°
2026-05-05 01:06 36.25015 -86.51598 5852 ft 254 kts
2026-05-05 01:07 36.26724 -86.51642 5562 ft 243 kts 336°
2026-05-05 01:07 36.28102 -86.52710 5254 ft 230 kts 303°
2026-05-05 01:07 36.28750 -86.54408 5002 ft 213 kts 271°
2026-05-05 01:07 36.28667 -86.56200 4760 ft 207 kts 257°
2026-05-05 01:08 36.28439 -86.57957 4475 ft 207 kts 256°
2026-05-05 01:08 36.28186 -86.59711 4231 ft 205 kts 256°
2026-05-05 01:08 36.27933 -86.61428 4052 ft 200 kts 256°
2026-05-05 01:08 36.27695 -86.63070 3989 ft 188 kts 255°
2026-05-05 01:09 36.27219 -86.64470 3871 ft 170 kts 224°
2026-05-05 01:09 36.26190 -86.65093 3573 ft 170 kts 191°
2026-05-05 01:09 36.25006 -86.64987 3178 ft 172 kts 174°
2026-05-05 01:09 36.23810 -86.64651 2786 ft 177 kts 173°
2026-05-05 01:10 36.22621 -86.64520 2449 ft 168 kts 192°
2026-05-05 01:10 36.21491 -86.64828 2212 ft 168 kts 199°
2026-05-05 01:10 36.20373 -86.65256 1982 ft 165 kts 199°
2026-05-05 01:10 36.19332 -86.65668 1752 ft 148 kts 200°
2026-05-05 01:11 36.18417 -86.66029 1594 ft 129 kts 201°
2026-05-05 01:11 36.17583 -86.66360 1391 ft 125 kts 199°
2026-05-05 01:11 36.16756 -86.66684 1236 ft 127 kts 196°
2026-05-05 01:11 36.15912 -86.66999 1069 ft 126 kts 200°
2026-05-05 01:12 36.15083 -86.67340 891 ft 124 kts 200°
2026-05-05 01:12 36.14261 -86.67666 688 ft 124 kts 197°
2026-05-05 01:12 36.13447 -86.67990 578 ft 122 kts 199°
2026-05-05 01:12 36.12794 -86.68243 574 ft 68 kts 197°
2026-05-05 01:13 36.12446 -86.68382 569 ft 49 kts 197°
2026-05-05 01:13 36.12195 -86.68479 573 ft 22 kts 190°
2026-05-05 01:13 36.12134 -86.68359 574 ft 17 kts 108°
2026-05-05 01:13 36.12197 -86.68274 574 ft 16 kts 16°
2026-05-05 01:14 36.12299 -86.68236 572 ft 15 kts 15°
2026-05-05 01:14 36.12397 -86.68202 572 ft 15 kts 15°
2026-05-05 01:14 36.12503 -86.68164 573 ft 17 kts 15°
2026-05-05 01:14 36.12621 -86.68122 576 ft 19 kts 16°
2026-05-05 01:15 36.12749 -86.68075 575 ft 19 kts 17°
2026-05-05 01:15 36.12892 -86.68023 574 ft 23 kts 16°
2026-05-05 01:15 36.13051 -86.67961 575 ft 23 kts 19°
2026-05-05 01:15 36.13202 -86.67900 572 ft 22 kts 18°
2026-05-05 01:16 36.13349 -86.67844 573 ft 22 kts 17°
2026-05-05 01:16 36.13490 -86.67789 574 ft 18 kts 18°
2026-05-05 01:16 36.13513 -86.67672 573 ft 18 kts 110°
2026-05-05 01:16 36.13470 -86.67508 571 ft 22 kts 108°
2026-05-05 01:17 36.13425 -86.67347 565 ft 15 kts 122°
2026-05-05 01:17 36.13333 -86.67345 567 ft 14 kts 193°
2026-05-05 01:17 36.13237 -86.67364 567 ft 14 kts 182°
2026-05-05 01:17 36.13145 -86.67374 572 ft 13 kts 187°
2026-05-05 01:18 36.13050 -86.67374 568 ft 15 kts 167°
2026-05-05 01:18 36.12951 -86.67305 568 ft 18 kts 140°
2026-05-05 01:18 36.12845 -86.67211 569 ft 19 kts 134°
2026-05-05 01:18 36.12758 -86.67089 568 ft 19 kts 130°
2026-05-05 01:19 36.12676 -86.66971 571 ft 17 kts 130°
2026-05-05 01:19 36.12687 -86.66865 569 ft 15 kts 41°
2026-05-05 01:19 36.12764 -86.66788 574 ft 14 kts 25°
2026-05-05 01:19 36.12851 -86.66816 569 ft 12 kts 333°
2026-05-05 01:20 36.12917 -86.66770 569 ft 8 kts 41°
2026-05-05 01:20 36.12930 -86.66756 571 ft 0 kts 41°